Montpelier, VT

8:24 AM EST on February 10, 2016 (GMT -0500)
Knapp State

Weather History for KMPV - January, 2013

Change the Weather History Date:

Saturday, January 19, 2013

  Actual Average Record
Temperature  
Mean Temperature 26 °F 16 °F  
Max Temperature 38 °F 26 °F 57 °F (1949)
Min Temperature 13 °F 7 °F -26 °F (1997)
Degree Days  
Heating Degree Days 39 49  
Month to date heating degree days 745 919  
Since 1 July heating degree days 3708 4067  
Cooling Degree Days 0 0  
Month to date cooling degree days 0  
Year to date cooling degree days 0  
Moisture  
Dew Point 15 °F    
Average Humidity 68    
Maximum Humidity 88    
Minimum Humidity 48    
Precipitation  
Precipitation 0.01 in 0.07 in 0.20 in (2007)
Month to date precipitation 0.15 1.41  
Year to date precipitation 0.15 1.41  
Sea Level Pressure  
Sea Level Pressure 30.05 in    
Wind  
Wind Speed 7 mph (South)    
Max Wind Speed 15 mph    
Max Gust Speed 24 mph    
Visibility 6 miles    
Events Snow    
T = Trace of Precipitation, MM = Missing Value Source: NWS Daily Summary

Daily Weather History Graph

Daily Weather History Graph

Search for Another Location

Airport or City:

Trip Planner

Search our weather history database for the weather conditions in past years. The results will help you decide how hot, cold, wet, or windy it might be!

Date:

Astronomy

Jan. 19, 2013 Rise Set
Actual Time 7:19 AM EST 4:42 PM EST
Civil Twilight 6:47 AM EST 5:14 PM EST
Nautical Twilight 6:12 AM EST 5:50 PM EST
Astronomical Twilight 5:37 AM EST 6:24 PM EST
Moon 11:10 AM EST (1/19) 12:47 AM EST (1/19)
Length of Visible Light 10h 26m
Length of Day
9h 23m
First Quarter, 57% of the Moon is Illuminated
Jan 19
First Quarter
Jan 26
Full
Feb 3
Last Quarter
Feb 10
New
Feb 17
First Quarter

Hourly Weather History & Observations

Time (EST) Temp. Windchill Dew Point Humidity Pressure Visibility Wind Dir Wind Speed Gust Speed Precip Events Conditions
12:51 AM 12.9 °F -0.2 °F 3.0 °F 65% 30.27 in 4.0 mi South 10.4 mph 16.1 mph 0.00 in Snow Light Snow
1:13 AM 12.2 °F -0.2 °F 6.8 °F 79% 30.17 in 2.0 mi South 9.2 mph - 0.00 in Snow Light Snow
1:34 AM 12.2 °F -1.0 °F 6.8 °F 79% 30.16 in 4.0 mi South 10.4 mph - 0.00 in Snow Light Snow
1:51 AM 12.2 °F 4.3 °F 6.8 °F 79% 30.17 in 8.0 mi SSW 4.6 mph - N/A   Overcast
2:51 AM 15.1 °F 2.5 °F 10.0 °F 80% 30.21 in 2.5 mi South 10.4 mph - 0.00 in Snow Light Snow
3:21 AM 15.8 °F 5.1 °F 10.4 °F 79% 30.12 in 1.8 mi South 8.1 mph - 0.00 in Snow Light Snow
3:33 AM 15.8 °F 3.4 °F 10.4 °F 79% 30.11 in 2.0 mi South 10.4 mph - 0.00 in Snow Light Snow
3:47 AM 15.8 °F 5.1 °F 10.4 °F 79% 30.10 in 1.2 mi South 8.1 mph - 0.00 in Snow Light Snow
3:48 AM 15.1 °F 4.2 °F 10.9 °F 84% 30.17 in 1.2 mi South 8.1 mph - 0.00 in Snow Light Snow
4:10 AM 15.8 °F 2.7 °F 12.2 °F 86% 30.09 in 1.8 mi South 11.5 mph - 0.00 in Snow Light Snow
4:19 AM 15.8 °F 2.1 °F 12.2 °F 86% 30.08 in 1.0 mi South 12.7 mph - 0.01 in Snow Light Snow
4:28 AM 15.8 °F 2.7 °F 12.2 °F 86% 30.08 in 0.8 mi South 11.5 mph - 0.01 in Snow Light Snow
4:46 AM 15.8 °F 2.1 °F 12.2 °F 86% 30.06 in 1.0 mi SSE 12.7 mph - 0.01 in Snow Light Snow
4:47 AM 16.0 °F 2.9 °F 12.9 °F 88% 30.14 in 1.0 mi SSE 11.5 mph - 0.01 in Snow Light Snow
5:16 AM 17.6 °F 5.0 °F 14.0 °F 86% 30.05 in 1.5 mi South 11.5 mph - 0.00 in Snow Light Snow
5:22 AM 17.6 °F 5.0 °F 14.0 °F 86% 30.05 in 3.0 mi South 11.5 mph - 0.00 in Snow Light Snow
5:30 AM 15.8 °F 2.1 °F 14.0 °F 93% 30.05 in 2.0 mi South 12.7 mph - 0.00 in Snow Light Snow
5:32 AM 15.8 °F 2.7 °F 14.0 °F 93% 30.05 in 1.8 mi South 11.5 mph - 0.00 in Snow Light Snow
5:42 AM 17.6 °F 3.7 °F 14.0 °F 86% 30.05 in 3.0 mi South 13.8 mph - 0.00 in Snow Light Snow
5:51 AM 17.1 °F 3.6 °F 14.0 °F 88% 30.13 in 4.0 mi SSE 12.7 mph - 0.00 in Snow Light Snow
6:51 AM 19.0 °F 7.5 °F 14.0 °F 81% 30.12 in 8.0 mi South 10.4 mph - 0.00 in   Overcast
7:51 AM 19.0 °F 11.1 °F 12.0 °F 74% 30.10 in 10.0 mi Variable 5.8 mph - N/A   Overcast
8:51 AM 19.9 °F 12.1 °F 12.0 °F 71% 30.09 in 10.0 mi SE 5.8 mph - N/A   Overcast
9:51 AM 23.0 °F - 14.0 °F 68% 30.08 in 10.0 mi Calm Calm - N/A   Overcast
10:51 AM 26.1 °F 21.9 °F 15.1 °F 63% 30.04 in 10.0 mi ESE 3.5 mph - N/A   Overcast
11:51 AM 27.0 °F 23.0 °F 17.1 °F 66% 29.99 in 10.0 mi Variable 3.5 mph - N/A   Overcast
12:51 PM 33.1 °F 24.9 °F 19.0 °F 56% 29.96 in 10.0 mi SW 10.4 mph 24.2 mph N/A   Overcast
1:51 PM 35.1 °F 32.2 °F 19.0 °F 52% 29.96 in 10.0 mi Variable 3.5 mph - N/A   Overcast
2:51 PM 37.0 °F 30.4 °F 19.9 °F 50% 29.96 in 10.0 mi South 9.2 mph - N/A   Overcast
3:51 PM 37.0 °F 31.0 °F 19.9 °F 50% 29.96 in 10.0 mi SSW 8.1 mph 17.3 mph N/A   Overcast
4:51 PM 37.0 °F 31.0 °F 21.0 °F 52% 29.96 in 10.0 mi SW 8.1 mph - N/A   Overcast
5:51 PM 35.1 °F 27.9 °F 21.9 °F 59% 29.95 in 10.0 mi SSE 9.2 mph - N/A   Partly Cloudy
6:51 PM 36.0 °F 30.3 °F 21.9 °F 57% 29.94 in 10.0 mi SE 6.9 mph - N/A   Overcast
7:51 PM 34.0 °F 28.0 °F 21.9 °F 61% 29.93 in 10.0 mi South 6.9 mph - N/A   Overcast
8:51 PM 36.0 °F 30.3 °F 21.0 °F 55% 29.90 in 10.0 mi South 6.9 mph - N/A   Overcast
9:51 PM 36.0 °F 30.3 °F 21.9 °F 57% 29.86 in 10.0 mi South 6.9 mph - N/A   Overcast
10:51 PM 36.0 °F 31.1 °F 23.0 °F 59% 29.82 in 10.0 mi South 5.8 mph - N/A   Overcast
11:51 PM 36.0 °F 29.6 °F 21.9 °F 57% 29.79 in 10.0 mi SSW 8.1 mph - N/A   Overcast